timestamp,surface_pressure_avg,surface_temp_avg,battery_voltage,lat,long
2021-06-23 00:09:00+00:00,299.908,12.75,13.05,47.84626,-54.09684
2021-06-23 00:19:01+00:00,296.4014,12.8,12.73,47.84626,-54.09684
2021-06-23 00:29:01+00:00,294.3246,12.8,12.73,47.84626,-54.09684
2021-06-23 00:39:01+00:00,282.2064,12.89,12.73,47.84626,-54.09684
2021-06-23 00:49:01+00:00,271.5897,12.9,12.73,47.84626,-54.09684
2021-06-23 00:59:01+00:00,267.9115,12.92,12.73,47.84626,-54.09684
2021-06-23 01:09:01+00:00,258.1047,13.02,12.73,47.84626,-54.09684
2021-06-23 01:19:01+00:00,245.5764,13.23,12.73,47.84626,-54.09684
2021-06-23 01:29:01+00:00,241.8064,13.42,12.73,47.84626,-54.09684
2021-06-23 01:39:01+00:00,234.4698,13.64,12.73,47.84626,-54.09684
2021-06-23 01:49:01+00:00,222.2931,13.8,12.73,47.84626,-54.09684
2021-06-23 01:59:01+00:00,216.5115,13.9,12.73,47.84626,-54.09684
2021-06-23 02:09:01+00:00,215.2114,13.99,12.73,47.84626,-54.09684
2021-06-23 02:19:01+00:00,207.7765,14.0,12.73,47.84626,-54.09684
2021-06-23 02:29:01+00:00,199.3748,14.08,12.73,47.84626,-54.09684
2021-06-23 02:39:01+00:00,198.6914,14.1,12.73,47.84626,-54.09684
2021-06-23 02:49:01+00:00,196.5764,14.19,12.73,47.84626,-54.09684
2021-06-23 02:59:01+00:00,191.2448,14.2,12.73,47.84626,-54.09684
2021-06-23 03:09:01+00:00,191.1881,14.28,12.73,47.84626,-54.09684
2021-06-23 03:19:00+00:00,189.3498,14.3,12.73,47.84626,-54.09684
2021-06-23 03:29:00+00:00,182.4632,14.3,12.73,47.84626,-54.09684
2021-06-23 03:39:00+00:00,177.9315,14.3,12.73,47.84626,-54.09684
2021-06-23 03:49:00+00:00,181.7415,14.3,12.73,47.84626,-54.09684
2021-06-23 03:59:00+00:00,184.2932,14.3,12.73,47.84626,-54.09684
2021-06-23 04:09:00+00:00,179.6015,14.34,12.73,47.84626,-54.09684
2021-06-23 04:19:00+00:00,179.4281,14.4,12.65,47.84626,-54.09684
2021-06-23 04:29:00+00:00,181.7815,14.49,12.65,47.84626,-54.09684
2021-06-23 04:39:00+00:00,180.3914,14.54,12.65,47.84626,-54.09684
2021-06-23 04:49:00+00:00,180.5431,14.6,12.65,47.84626,-54.09684
2021-06-23 04:59:00+00:00,182.8331,14.65,12.65,47.84626,-54.09684
2021-06-23 05:09:00+00:00,182.4832,14.7,12.65,47.84626,-54.09684
2021-06-23 05:19:01+00:00,181.4865,14.71,12.65,47.84626,-54.09684
2021-06-23 05:29:01+00:00,187.5281,14.77,12.65,47.84626,-54.09684
2021-06-23 05:39:01+00:00,194.1348,14.7,12.65,47.84626,-54.09684
2021-06-23 05:49:01+00:00,194.5265,14.6,12.65,47.84626,-54.09684
2021-06-23 05:59:01+00:00,197.1398,14.5,12.65,47.84626,-54.09684
2021-06-23 06:09:01+00:00,205.0914,14.36,12.65,47.84626,-54.09684
2021-06-23 06:19:01+00:00,207.9648,14.3,12.65,47.84626,-54.09684
2021-06-23 06:29:01+00:00,211.0114,14.3,12.65,47.84626,-54.09684
2021-06-23 06:39:01+00:00,221.4231,14.2,12.65,47.84626,-54.09684
2021-06-23 06:49:01+00:00,230.8214,14.2,12.65,47.84626,-54.09684
2021-06-23 06:59:01+00:00,234.9681,14.19,12.65,47.84626,-54.09684
2021-06-23 07:09:01+00:00,238.3547,14.1,12.65,47.84626,-54.09684
2021-06-23 07:19:00+00:00,247.6764,14.0,12.65,47.84626,-54.09684
2021-06-23 07:29:00+00:00,255.6431,13.9,12.65,47.84626,-54.09684
2021-06-23 07:39:00+00:00,260.608,13.8,12.65,47.84626,-54.09684
2021-06-23 07:49:00+00:00,269.5981,13.7,12.65,47.84626,-54.09684
2021-06-23 07:59:00+00:00,280.0481,13.3,12.65,47.84626,-54.09684
2021-06-23 08:09:00+00:00,287.4031,13.3,12.65,47.84626,-54.09684
2021-06-23 08:19:00+00:00,293.5164,13.2,12.65,47.84626,-54.09684
2021-06-23 08:29:00+00:00,305.6296,12.71,12.65,47.84626,-54.09684
2021-06-23 08:39:00+00:00,313.0081,12.45,12.65,47.84626,-54.09684
2021-06-23 08:49:00+00:00,314.7548,12.64,12.65,47.84626,-54.09684
2021-06-23 08:59:00+00:00,322.118,11.7,12.65,47.84626,-54.09684
2021-06-23 09:09:00+00:00,332.3363,11.58,12.65,47.84626,-54.09684
2021-06-23 09:19:00+00:00,334.2064,11.6,12.65,47.84626,-54.09684
2021-06-23 09:29:00+00:00,336.1246,11.3,12.65,47.84626,-54.09684
2021-06-23 09:39:00+00:00,343.1963,10.65,12.65,47.84626,-54.09684
2021-06-23 09:49:00+00:00,345.3196,10.58,12.65,47.84626,-54.09684
2021-06-23 09:59:00+00:00,344.4763,10.57,12.65,47.84626,-54.09684
2021-06-23 10:09:00+00:00,346.5763,10.67,12.65,47.84626,-54.09684
2021-06-23 10:19:00+00:00,343.353,11.1,12.65,47.84626,-54.09684
2021-06-23 10:29:00+00:00,337.3396,11.0,12.65,47.84626,-54.09684
2021-06-23 10:39:00+00:00,342.0413,10.9,12.65,47.84626,-54.09684
2021-06-23 10:49:00+00:00,341.5679,11.45,12.65,47.84626,-54.09684
2021-06-23 10:59:00+00:00,334.5679,11.7,12.65,47.84626,-54.09684
2021-06-23 11:09:00+00:00,330.2164,11.58,12.65,47.84626,-54.09684
2021-06-23 11:19:01+00:00,332.5713,11.45,12.73,47.84626,-54.09684
2021-06-23 11:29:01+00:00,332.05300000000005,11.9,12.73,47.84626,-54.09684
2021-06-23 11:39:01+00:00,325.7747,12.0,12.73,47.84626,-54.09684
2021-06-23 11:49:01+00:00,326.123,11.9,12.73,47.84626,-54.09684
2021-06-23 11:59:01+00:00,322.2413,11.9,12.73,47.84626,-54.09684
2021-06-23 12:09:01+00:00,313.1797,12.0,12.73,47.84626,-54.09684
2021-06-23 12:19:00+00:00,301.5497,11.9,13.05,47.84626,-54.09684
2021-06-23 12:29:00+00:00,302.8564,11.9,13.05,47.84626,-54.09684
2021-06-23 12:39:00+00:00,298.1747,11.93,13.05,47.84626,-54.09684
2021-06-23 12:49:00+00:00,283.8013,12.42,13.05,47.84626,-54.09684
2021-06-23 12:59:00+00:00,272.9514,12.6,13.05,47.84626,-54.09684
2021-06-23 13:09:00+00:00,270.5664,12.8,13.05,47.84626,-54.09684
2021-06-23 13:19:01+00:00,261.8347,13.14,13.6,47.84626,-54.09684
2021-06-23 13:29:01+00:00,247.0964,13.51,13.6,47.84626,-54.09684
2021-06-23 13:39:01+00:00,239.8114,13.6,13.6,47.84626,-54.09684
2021-06-23 13:49:01+00:00,233.2264,13.6,13.6,47.84626,-54.09684
2021-06-23 13:59:01+00:00,225.2798,13.6,13.6,47.84626,-54.09684
2021-06-23 14:09:01+00:00,219.8981,13.58,13.6,47.84626,-54.09684
2021-06-23 14:19:00+00:00,212.4948,13.48,14.32,47.84626,-54.09684
2021-06-23 14:29:00+00:00,201.0814,13.5,14.32,47.84626,-54.09684
2021-06-23 14:39:00+00:00,194.8948,13.4,14.32,47.84626,-54.09684
2021-06-23 14:49:00+00:00,192.1298,13.1,14.32,47.84626,-54.09684
2021-06-23 14:59:00+00:00,184.5065,12.9,14.32,47.84626,-54.09684
2021-06-23 15:09:00+00:00,176.6265,12.9,14.32,47.84626,-54.09684
2021-06-23 15:19:01+00:00,174.2348,12.91,14.08,47.84626,-54.09684
2021-06-23 15:29:01+00:00,172.7948,12.9,14.08,47.84626,-54.09684
2021-06-23 15:39:01+00:00,171.3215,12.88,14.08,47.84626,-54.09684
2021-06-23 15:49:01+00:00,172.0165,13.03,14.08,47.84626,-54.09684
2021-06-23 15:59:01+00:00,171.0632,13.1,14.08,47.84626,-54.09684
2021-06-23 16:09:01+00:00,170.3582,13.13,14.08,47.84626,-54.09684
2021-06-23 16:19:01+00:00,172.1615,13.0,13.84,47.84626,-54.09684
2021-06-23 16:29:01+00:00,171.3315,12.94,13.84,47.84626,-54.09684
2021-06-23 16:39:01+00:00,171.4915,12.99,13.84,47.84626,-54.09684
2021-06-23 16:49:01+00:00,171.6565,13.04,13.84,47.84626,-54.09684
2021-06-23 16:59:01+00:00,172.9332,13.13,13.84,47.84626,-54.09684
2021-06-23 17:09:01+00:00,175.6132,13.2,13.84,47.84626,-54.09684
2021-06-23 17:19:01+00:00,180.7248,13.2,13.68,47.84626,-54.09684
2021-06-23 17:29:01+00:00,188.1031,13.22,13.68,47.84626,-54.09684
2021-06-23 17:39:01+00:00,193.7148,13.3,13.68,47.84626,-54.09684
2021-06-23 17:49:01+00:00,197.2231,13.3,13.68,47.84626,-54.09684
2021-06-23 17:59:01+00:00,202.2931,13.2,13.68,47.84626,-54.09684
2021-06-23 18:09:01+00:00,209.7814,13.24,13.68,47.84626,-54.09684
2021-06-23 18:19:01+00:00,214.7248,13.4,13.6,47.84626,-54.09684
2021-06-23 18:29:01+00:00,217.8898,13.52,13.6,47.84626,-54.09684
2021-06-23 18:39:01+00:00,221.7515,13.63,13.6,47.84626,-54.09684
2021-06-23 18:49:01+00:00,226.8881,13.66,13.6,47.84626,-54.09684
2021-06-23 18:59:01+00:00,235.0481,13.68,13.6,47.84626,-54.09684
2021-06-23 19:09:01+00:00,246.268,13.7,13.6,47.84626,-54.09684
2021-06-23 19:19:01+00:00,254.1681,13.76,13.68,47.84626,-54.09684
2021-06-23 19:29:01+00:00,259.7481,13.8,13.68,47.84626,-54.09684
2021-06-23 19:39:01+00:00,272.183,13.8,13.68,47.84626,-54.09684
2021-06-23 19:49:01+00:00,286.1681,13.8,13.68,47.84626,-54.09684
2021-06-23 19:59:01+00:00,292.4447,13.8,13.68,47.84626,-54.09684
2021-06-23 20:09:01+00:00,297.518,13.9,13.68,47.84626,-54.09684
2021-06-23 20:19:01+00:00,310.0413,13.9,13.68,47.84626,-54.09684
2021-06-23 20:29:01+00:00,319.9896,13.8,13.68,47.84626,-54.09684
2021-06-23 20:39:01+00:00,326.218,13.87,13.68,47.84626,-54.09684
2021-06-23 20:49:01+00:00,334.9263,13.8,13.68,47.84626,-54.09684
2021-06-23 20:59:01+00:00,344.478,13.6,13.68,47.84626,-54.09684
2021-06-23 21:09:01+00:00,346.8546,13.6,13.68,47.84626,-54.09684
2021-06-23 21:19:01+00:00,349.6713,13.4,13.37,47.84626,-54.09684
2021-06-23 21:29:01+00:00,357.413,13.0,13.37,47.84626,-54.09684
2021-06-23 21:39:01+00:00,363.3613,13.0,13.37,47.84626,-54.09684
2021-06-23 21:49:01+00:00,365.6029,13.13,13.37,47.84626,-54.09684
2021-06-23 21:59:01+00:00,368.0113,13.19,13.37,47.84626,-54.09684
2021-06-23 22:09:01+00:00,369.4595,12.9,13.37,47.84626,-54.09684
2021-06-23 22:19:01+00:00,373.2513,12.45,13.05,47.84626,-54.09684
2021-06-23 22:29:01+00:00,378.358,12.77,13.05,47.84626,-54.09684
2021-06-23 22:39:01+00:00,375.6046,12.9,13.05,47.84626,-54.09684
2021-06-23 22:49:01+00:00,374.0079,12.89,13.05,47.84626,-54.09684
2021-06-23 22:59:01+00:00,378.3746,12.8,13.05,47.84626,-54.09684
2021-06-23 23:09:01+00:00,379.8896,12.8,13.05,47.84626,-54.09684
2021-06-23 23:19:01+00:00,374.0363,12.88,12.73,47.84626,-54.09684
2021-06-23 23:29:01+00:00,373.3596,12.8,12.73,47.84626,-54.09684
2021-06-23 23:39:01+00:00,375.4263,12.6,12.73,47.84626,-54.09684
2021-06-23 23:49:01+00:00,372.43800000000016,12.55,12.73,47.84626,-54.09684
2021-06-23 23:59:01+00:00,367.913,12.6,12.73,47.84626,-54.09684
